timestamp,wind_dir_avg,wind_spd_avg,wind_spd_max_dir,wind_spd_gust,battery_voltage,lat,long
2023-10-26 00:04:00+00:00,228.0,6.69,230.0,7.95,12.49,47.59359,-54.27349
2023-10-26 00:14:00+00:00,228.0,6.12,230.0,6.53,12.41,47.59359,-54.27349
2023-10-26 00:24:00+00:00,315.0,0.01,225.0,0.0,12.41,47.59359,-54.27349
2023-10-26 00:34:00+00:00,315.0,0.01,220.0,0.0,12.41,47.59359,-54.27349
2023-10-26 00:44:00+00:00,315.0,0.01,234.0,0.0,12.41,47.59359,-54.27349
2023-10-26 00:54:00+00:00,231.0,6.16,229.0,6.41,12.41,47.59359,-54.27349
2023-10-26 01:04:00+00:00,315.0,0.01,216.0,0.0,12.41,47.59359,-54.27349
2023-10-26 01:14:01+00:00,315.0,0.01,239.0,0.0,12.41,47.59359,-54.27349
2023-10-26 01:24:01+00:00,222.0,3.7,222.0,4.07,12.41,47.59359,-54.27349
2023-10-26 01:34:01+00:00,315.0,0.01,231.0,0.0,12.41,47.59359,-54.27349
2023-10-26 01:44:01+00:00,315.0,0.01,239.0,0.0,12.41,47.59359,-54.27349
2023-10-26 01:54:01+00:00,315.0,0.01,243.0,0.0,12.41,47.59359,-54.27349
2023-10-26 02:04:01+00:00,315.0,0.01,243.0,0.0,12.41,47.59359,-54.27349
2023-10-26 02:14:01+00:00,315.0,0.01,227.0,0.0,12.41,47.59359,-54.27349
2023-10-26 02:24:01+00:00,315.0,0.01,217.0,0.0,12.41,47.59359,-54.27349
2023-10-26 02:34:01+00:00,315.0,0.01,233.0,0.0,12.41,47.59359,-54.27349
2023-10-26 02:44:01+00:00,315.0,0.01,231.0,0.0,12.41,47.59359,-54.27349
2023-10-26 02:54:01+00:00,212.0,5.17,213.0,5.18,12.41,47.59359,-54.27349
2023-10-26 03:04:01+00:00,226.0,6.35,225.0,6.76,12.41,47.59359,-54.27349
2023-10-26 03:14:00+00:00,315.0,0.01,229.0,0.0,12.41,47.59359,-54.27349
2023-10-26 03:24:00+00:00,315.0,0.01,207.0,0.0,12.41,47.59359,-54.27349
2023-10-26 03:34:00+00:00,211.0,6.05,218.0,6.87,12.41,47.59359,-54.27349
2023-10-26 03:44:00+00:00,214.0,5.83,204.0,7.56,12.41,47.59359,-54.27349
2023-10-26 03:54:00+00:00,214.0,7.77,217.0,9.36,12.41,47.59359,-54.27349
2023-10-26 04:04:00+00:00,212.0,8.53,219.0,9.95,12.41,47.59359,-54.27349
2023-10-26 04:14:00+00:00,214.0,9.46,215.0,11.13,12.41,47.59359,-54.27349
2023-10-26 04:24:00+00:00,221.0,8.08,219.0,9.66,12.41,47.59359,-54.27349
2023-10-26 04:34:00+00:00,219.0,7.66,222.0,9.69,12.41,47.59359,-54.27349
2023-10-26 04:44:00+00:00,217.0,7.86,222.0,8.76,12.41,47.59359,-54.27349
2023-10-26 04:54:00+00:00,217.0,8.0,214.0,9.32,12.41,47.59359,-54.27349
2023-10-26 05:04:00+00:00,225.0,8.12,229.0,9.7,12.41,47.59359,-54.27349
2023-10-26 05:14:01+00:00,225.0,9.61,217.0,11.84,12.41,47.59359,-54.27349
2023-10-26 05:24:01+00:00,226.0,9.76,233.0,11.36,12.41,47.59359,-54.27349
2023-10-26 05:34:01+00:00,225.0,9.59,230.0,11.95,12.41,47.59359,-54.27349
2023-10-26 05:44:01+00:00,220.0,9.86,216.0,11.65,12.41,47.59359,-54.27349
2023-10-26 05:54:01+00:00,226.0,10.78,227.0,12.48,12.41,47.59359,-54.27349
2023-10-26 06:04:01+00:00,224.0,11.01,224.0,12.8,12.41,47.59359,-54.27349
2023-10-26 06:14:01+00:00,225.0,9.7,226.0,11.35,12.33,47.59359,-54.27349
2023-10-26 06:24:01+00:00,225.0,9.5,224.0,12.31,12.33,47.59359,-54.27349
2023-10-26 06:34:01+00:00,227.0,9.28,235.0,11.36,12.33,47.59359,-54.27349
2023-10-26 06:44:01+00:00,228.0,9.55,220.0,11.88,12.33,47.59359,-54.27349
2023-10-26 06:54:01+00:00,228.0,10.66,229.0,12.42,12.33,47.59359,-54.27349
2023-10-26 07:04:01+00:00,227.0,8.53,228.0,10.22,12.33,47.59359,-54.27349
2023-10-26 07:14:01+00:00,231.0,9.3,234.0,11.8,12.33,47.59359,-54.27349
2023-10-26 07:24:01+00:00,230.0,8.25,247.0,9.82,12.33,47.59359,-54.27349
2023-10-26 07:34:01+00:00,228.0,9.31,244.0,11.93,12.33,47.59359,-54.27349
2023-10-26 07:44:01+00:00,228.0,8.52,232.0,10.08,12.33,47.59359,-54.27349
2023-10-26 07:54:01+00:00,227.0,7.91,228.0,9.24,12.33,47.59359,-54.27349
2023-10-26 08:04:01+00:00,227.0,8.06,223.0,10.71,12.33,47.59359,-54.27349
2023-10-26 08:14:00+00:00,228.0,8.81,225.0,10.63,12.33,47.59359,-54.27349
2023-10-26 08:24:00+00:00,228.0,8.79,230.0,10.8,12.33,47.59359,-54.27349
2023-10-26 08:34:00+00:00,226.0,7.97,221.0,10.06,12.33,47.59359,-54.27349
2023-10-26 08:44:00+00:00,225.0,8.65,225.0,10.28,12.33,47.59359,-54.27349
2023-10-26 08:54:00+00:00,228.0,7.35,228.0,9.2,12.33,47.59359,-54.27349
2023-10-26 09:04:00+00:00,222.0,7.29,210.0,8.73,12.33,47.59359,-54.27349
2023-10-26 09:14:00+00:00,228.0,6.46,229.0,8.61,12.33,47.59359,-54.27349
2023-10-26 09:24:00+00:00,225.0,6.63,228.0,7.85,12.33,47.59359,-54.27349
2023-10-26 09:34:00+00:00,221.0,6.79,218.0,7.96,12.33,47.59359,-54.27349
2023-10-26 09:44:00+00:00,222.0,7.39,218.0,8.94,12.33,47.59359,-54.27349
2023-10-26 09:54:00+00:00,223.0,7.46,232.0,8.86,12.33,47.59359,-54.27349
2023-10-26 10:04:00+00:00,221.0,8.71,223.0,10.08,12.33,47.59359,-54.27349
2023-10-26 10:14:00+00:00,217.0,6.88,215.0,7.48,12.33,47.59359,-54.27349
2023-10-26 10:24:00+00:00,315.0,0.01,215.0,0.0,12.33,47.59359,-54.27349
2023-10-26 10:34:00+00:00,315.0,0.01,203.0,0.0,12.33,47.59359,-54.27349
2023-10-26 10:44:00+00:00,234.0,6.94,231.0,7.43,12.33,47.59359,-54.27349
2023-10-26 10:54:00+00:00,231.0,7.06,233.0,7.72,12.33,47.59359,-54.27349
2023-10-26 11:04:00+00:00,232.0,6.76,227.0,7.45,12.33,47.59359,-54.27349
2023-10-26 11:14:00+00:00,238.0,6.45,240.0,6.89,12.33,47.59359,-54.27349
2023-10-26 11:24:00+00:00,242.0,6.26,240.0,6.99,12.33,47.59359,-54.27349
2023-10-26 11:34:00+00:00,243.0,5.7,242.0,6.09,12.33,47.59359,-54.27349
2023-10-26 11:44:00+00:00,242.0,6.5,240.0,7.34,12.33,47.59359,-54.27349
2023-10-26 11:54:00+00:00,237.0,6.42,236.0,6.93,12.33,47.59359,-54.27349
2023-10-26 12:04:00+00:00,238.0,6.68,238.0,7.39,12.33,47.59359,-54.27349
2023-10-26 12:14:00+00:00,239.0,7.03,238.0,7.81,12.57,47.59359,-54.27349
2023-10-26 12:24:00+00:00,231.0,7.14,231.0,7.52,12.57,47.59359,-54.27349
2023-10-26 12:34:00+00:00,230.0,6.76,232.0,7.63,12.57,47.59359,-54.27349
2023-10-26 12:44:00+00:00,230.0,6.54,229.0,6.95,12.57,47.59359,-54.27349
2023-10-26 12:54:00+00:00,231.0,6.39,228.0,6.94,12.57,47.59359,-54.27349
2023-10-26 13:04:00+00:00,232.0,6.13,232.0,6.82,12.57,47.59359,-54.27349
2023-10-26 13:14:01+00:00,230.0,5.92,231.0,6.28,13.37,47.59359,-54.27349
2023-10-26 13:24:01+00:00,246.0,4.85,240.0,5.42,13.37,47.59359,-54.27349
2023-10-26 13:34:01+00:00,250.0,5.52,267.0,6.2,13.37,47.59359,-54.27349
2023-10-26 13:44:01+00:00,246.0,5.5,249.0,6.35,13.37,47.59359,-54.27349
2023-10-26 13:54:01+00:00,266.0,6.33,270.0,7.52,13.37,47.59359,-54.27349
2023-10-26 14:04:01+00:00,269.0,6.72,269.0,7.45,13.37,47.59359,-54.27349
2023-10-26 14:14:01+00:00,261.0,5.58,266.0,7.67,13.6,47.59359,-54.27349
2023-10-26 14:24:01+00:00,269.0,5.68,268.0,6.97,13.6,47.59359,-54.27349
2023-10-26 14:34:01+00:00,263.0,5.5,261.0,8.99,13.6,47.59359,-54.27349
2023-10-26 14:44:01+00:00,266.0,5.14,269.0,6.01,13.6,47.59359,-54.27349
2023-10-26 14:54:01+00:00,272.0,6.74,271.0,8.52,13.6,47.59359,-54.27349
2023-10-26 15:04:01+00:00,270.0,6.62,271.0,8.85,13.6,47.59359,-54.27349
2023-10-26 15:14:01+00:00,284.0,6.78,286.0,7.61,13.21,47.59359,-54.27349
2023-10-26 15:24:01+00:00,282.0,6.44,283.0,7.13,13.21,47.59359,-54.27349
2023-10-26 15:34:01+00:00,277.0,6.14,275.0,7.95,13.21,47.59359,-54.27349
2023-10-26 15:44:01+00:00,277.0,4.99,279.0,5.62,13.21,47.59359,-54.27349
2023-10-26 15:54:01+00:00,268.0,3.6,265.0,3.99,13.21,47.59359,-54.27349
2023-10-26 16:04:01+00:00,294.0,5.11,298.0,6.07,13.21,47.59359,-54.27349
2023-10-26 16:14:01+00:00,298.0,6.14,302.0,6.85,12.89,47.59359,-54.27349
2023-10-26 16:24:01+00:00,302.0,6.18,304.0,6.91,12.89,47.59359,-54.27349
2023-10-26 16:34:01+00:00,328.0,8.93,324.0,9.61,12.89,47.59359,-54.27349
2023-10-26 16:44:01+00:00,341.0,7.07,326.0,8.11,12.89,47.59359,-54.27349
2023-10-26 16:54:01+00:00,328.0,8.62,328.0,9.03,12.89,47.59359,-54.27349
2023-10-26 17:04:01+00:00,333.0,8.2,332.0,8.32,12.89,47.59359,-54.27349
2023-10-26 17:14:00+00:00,315.0,0.01,333.0,0.0,12.97,47.59359,-54.27349
2023-10-26 17:24:00+00:00,323.0,4.85,323.0,4.87,12.97,47.59359,-54.27349
2023-10-26 17:34:00+00:00,303.0,6.04,303.0,6.67,12.97,47.59359,-54.27349
2023-10-26 17:44:00+00:00,315.0,0.01,326.0,0.0,12.97,47.59359,-54.27349
2023-10-26 17:54:00+00:00,325.0,4.8,324.0,5.32,12.97,47.59359,-54.27349
2023-10-26 18:04:00+00:00,320.0,4.23,322.0,4.73,12.97,47.59359,-54.27349
2023-10-26 18:14:01+00:00,324.0,4.74,316.0,6.45,13.68,47.59359,-54.27349
2023-10-26 18:24:01+00:00,323.0,6.95,324.0,7.4,13.68,47.59359,-54.27349
2023-10-26 18:34:01+00:00,324.0,4.94,324.0,5.09,13.68,47.59359,-54.27349
2023-10-26 18:44:01+00:00,317.0,4.78,313.0,5.8,13.68,47.59359,-54.27349
2023-10-26 18:54:01+00:00,330.0,4.06,335.0,5.01,13.68,47.59359,-54.27349
2023-10-26 19:04:01+00:00,336.0,4.46,345.0,5.12,13.68,47.59359,-54.27349
2023-10-26 19:14:00+00:00,323.0,3.25,322.0,3.79,13.29,47.59359,-54.27349
2023-10-26 19:24:00+00:00,327.0,4.04,328.0,4.64,13.29,47.59359,-54.27349
2023-10-26 19:34:00+00:00,332.0,5.25,334.0,5.36,13.29,47.59359,-54.27349
2023-10-26 19:44:00+00:00,328.0,4.81,329.0,4.88,13.29,47.59359,-54.27349
2023-10-26 19:54:00+00:00,326.0,4.49,330.0,4.75,13.29,47.59359,-54.27349
2023-10-26 20:04:00+00:00,329.0,4.52,328.0,5.04,13.29,47.59359,-54.27349
2023-10-26 20:14:00+00:00,335.0,5.83,334.0,6.75,12.81,47.59359,-54.27349
2023-10-26 20:24:00+00:00,338.0,4.42,343.0,4.98,12.81,47.59359,-54.27349
2023-10-26 20:34:00+00:00,341.0,5.56,340.0,6.4,12.81,47.59359,-54.27349
2023-10-26 20:44:00+00:00,341.0,5.83,345.0,7.6,12.81,47.59359,-54.27349
2023-10-26 20:54:00+00:00,343.0,6.13,345.0,7.16,12.81,47.59359,-54.27349
2023-10-26 21:04:00+00:00,339.0,5.38,340.0,5.99,12.81,47.59359,-54.27349
2023-10-26 21:14:00+00:00,336.0,5.02,337.0,5.08,12.49,47.59359,-54.27349
2023-10-26 21:24:00+00:00,329.0,3.51,333.0,4.17,12.49,47.59359,-54.27349
2023-10-26 21:34:00+00:00,326.0,2.92,328.0,3.3,12.49,47.59359,-54.27349
2023-10-26 21:44:00+00:00,302.0,2.29,305.0,2.86,12.49,47.59359,-54.27349
2023-10-26 21:54:00+00:00,334.0,2.96,338.0,3.59,12.49,47.59359,-54.27349
2023-10-26 22:04:00+00:00,337.0,3.25,337.0,3.7,12.49,47.59359,-54.27349
2023-10-26 22:14:01+00:00,341.0,4.96,343.0,5.4,12.49,47.59359,-54.27349
2023-10-26 22:24:01+00:00,339.0,3.8,341.0,4.24,12.49,47.59359,-54.27349
2023-10-26 22:34:01+00:00,328.0,2.4,331.0,2.71,12.49,47.59359,-54.27349
2023-10-26 22:44:01+00:00,322.0,1.66,321.0,1.93,12.49,47.59359,-54.27349
2023-10-26 22:54:01+00:00,309.0,2.97,301.0,4.69,12.49,47.59359,-54.27349
2023-10-26 23:04:01+00:00,7.0,2.01,6.0,3.06,12.49,47.59359,-54.27349
2023-10-26 23:14:01+00:00,332.0,2.79,340.0,3.64,12.41,47.59359,-54.27349
2023-10-26 23:24:01+00:00,332.0,3.78,328.0,4.6,12.41,47.59359,-54.27349
2023-10-26 23:34:01+00:00,325.0,2.41,326.0,3.15,12.41,47.59359,-54.27349
2023-10-26 23:44:01+00:00,325.0,1.83,340.0,2.4,12.41,47.59359,-54.27349
2023-10-26 23:54:01+00:00,328.0,3.8,332.0,4.26,12.41,47.59359,-54.27349
